Time,TemperatureF,DewpointF,PressureIn,WindDirection,WindDirectionDegrees,WindSpeedMPH,WindSpeedGustMPH,Humidity,HourlyPrecipIn,Conditions,Clouds,dailyrainin,SoftwareType,DateUTC
2013-07-12 00:11:00,70.0,68.0,-100.00,East,80,0.0,0.0,95,-99.99,,,-99.99,,2013-07-12 05:11:00,
2013-07-12 00:22:00,70.0,68.0,-100.00,East,80,0.0,0.0,95,-99.99,,,-99.99,,2013-07-12 05:22:00,
2013-07-12 00:53:00,69.0,67.0,-100.00,ENE,75,0.0,0.0,95,-99.99,,,-99.99,,2013-07-12 05:53:00,
2013-07-12 01:11:00,68.0,67.0,-100.00,East,90,0.0,0.0,95,-99.99,,,-99.99,,2013-07-12 06:11:00,
2013-07-12 01:22:00,68.0,67.0,-100.00,East,90,0.0,0.0,95,-99.99,,,-99.99,,2013-07-12 06:22:00,
2013-07-12 01:52:00,67.0,66.0,-100.00,ENE,75,0.0,0.0,94,-99.99,,,-99.99,,2013-07-12 06:52:00,
2013-07-12 02:12:00,67.0,65.0,-100.00,ESE,110,0.0,0.0,94,-99.99,,,-99.99,,2013-07-12 07:12:00,
2013-07-12 02:22:00,67.0,65.0,-100.00,ESE,110,0.0,0.0,94,-99.99,,,-99.99,,2013-07-12 07:22:00,
2013-07-12 02:43:00,67.0,64.0,-100.00,SE,130,0.0,0.0,93,-99.99,,,-99.99,,2013-07-12 07:43:00,
2013-07-12 02:52:00,67.0,64.0,-100.00,SE,130,0.0,0.0,93,-99.99,,,-99.99,,2013-07-12 07:52:00,
2013-07-12 03:01:00,67.0,64.0,-100.00,SE,130,0.0,0.0,93,-99.99,,,-99.99,,2013-07-12 08:01:00,
2013-07-12 03:21:00,66.0,62.0,-100.00,SE,145,0.0,0.0,87,-99.99,,,-99.99,,2013-07-12 08:21:00,
2013-07-12 03:42:00,65.0,62.0,-100.00,East,80,0.0,0.0,88,-99.99,,,-99.99,,2013-07-12 08:42:00,
2013-07-12 03:53:00,65.0,62.0,-100.00,East,80,0.0,0.0,88,-99.99,,,-99.99,,2013-07-12 08:53:00,
2013-07-12 04:12:00,65.0,63.0,-100.00,East,100,0.0,0.0,92,-99.99,,,-99.99,,2013-07-12 09:12:00,
2013-07-12 04:22:00,65.0,63.0,-100.00,East,100,0.0,0.0,92,-99.99,,,-99.99,,2013-07-12 09:22:00,
2013-07-12 04:43:00,65.0,62.0,-100.00,ESE,110,0.0,0.0,91,-99.99,,,-99.99,,2013-07-12 09:43:00,
2013-07-12 04:52:00,65.0,62.0,-100.00,ESE,110,0.0,0.0,91,-99.99,,,-99.99,,2013-07-12 09:52:00,
2013-07-12 05:22:00,64.0,61.0,-100.00,ESE,120,0.0,0.0,92,-99.99,,,-99.99,,2013-07-12 10:22:00,
2013-07-12 05:42:00,63.0,61.0,-100.00,East,80,0.0,0.0,93,-99.99,,,-99.99,,2013-07-12 10:42:00,
2013-07-12 05:52:00,63.0,61.0,-100.00,East,80,0.0,0.0,93,-99.99,,,-99.99,,2013-07-12 10:52:00,
2013-07-12 06:12:00,63.0,61.0,-100.00,East,95,0.0,0.0,95,-99.99,,,-99.99,,2013-07-12 11:12:00,
2013-07-12 06:22:00,63.0,61.0,-100.00,East,95,0.0,0.0,95,-99.99,,,-99.99,,2013-07-12 11:22:00,
2013-07-12 06:43:00,62.0,62.0,-100.00,East,85,0.0,0.0,98,-99.99,,,-99.99,,2013-07-12 11:43:00,
2013-07-12 06:53:00,62.0,62.0,-100.00,East,85,0.0,0.0,98,-99.99,,,-99.99,,2013-07-12 11:53:00,
2013-07-12 07:53:00,66.0,62.0,-100.00,ESE,120,0.0,0.0,87,-99.99,,,-99.99,,2013-07-12 12:53:00,
2013-07-12 08:22:00,69.0,62.0,-100.00,SE,130,0.0,0.0,80,-99.99,,,-99.99,,2013-07-12 13:22:00,
2013-07-12 08:43:00,72.0,63.0,-100.00,SE,140,0.0,0.0,73,-99.99,,,-99.99,,2013-07-12 13:43:00,
2013-07-12 08:53:00,72.0,63.0,-100.00,SE,140,0.0,0.0,73,-99.99,,,-99.99,,2013-07-12 13:53:00,
2013-07-12 09:22:00,74.0,63.0,-100.00,SSE,165,0.0,0.0,67,-99.99,,,-99.99,,2013-07-12 14:22:00,
2013-07-12 09:44:00,76.0,62.0,-100.00,SE,145,0.0,0.0,61,-99.99,,,-99.99,,2013-07-12 14:44:00,
2013-07-12 09:53:00,76.0,62.0,-100.00,SE,145,0.0,0.0,61,-99.99,,,-99.99,,2013-07-12 14:53:00,
2013-07-12 10:22:00,79.0,59.0,-100.00,SE,130,0.0,0.0,52,-99.99,,,-99.99,,2013-07-12 15:22:00,
2013-07-12 10:53:00,81.0,62.0,-100.00,ESE,115,0.0,0.0,51,-99.99,,,-99.99,,2013-07-12 15:53:00,
2013-07-12 11:22:00,82.0,61.0,-100.00,SE,130,0.0,0.0,50,-99.99,,,-99.99,,2013-07-12 16:22:00,
2013-07-12 11:43:00,83.0,62.0,-100.00,SE,125,0.0,0.0,49,-99.99,,,-99.99,,2013-07-12 16:43:00,
2013-07-12 11:58:00,83.0,62.0,-100.00,SE,125,0.0,0.0,49,-99.99,,,-99.99,,2013-07-12 16:58:00,
2013-07-12 12:14:00,84.0,63.0,-100.00,SE,135,0.0,0.0,49,-99.99,,,-99.99,,2013-07-12 17:14:00,
2013-07-12 12:24:00,84.0,63.0,-100.00,SE,135,0.0,0.0,49,-99.99,,,-99.99,,2013-07-12 17:24:00,
2013-07-12 12:37:00,84.0,63.0,-100.00,ESE,110,0.0,0.0,50,-99.99,,,-99.99,,2013-07-12 17:37:00,
2013-07-12 12:45:00,85.0,63.0,-100.00,SE,135,0.0,0.0,47,-99.99,,,-99.99,,2013-07-12 17:45:00,
2013-07-12 12:56:00,85.0,63.0,-100.00,SE,135,0.0,0.0,47,-99.99,,,-99.99,,2013-07-12 17:56:00,
2013-07-12 13:27:00,86.0,63.0,-100.00,ENE,60,0.0,0.0,46,-99.99,,,-99.99,,2013-07-12 18:27:00,
2013-07-12 13:48:00,86.0,62.0,-100.00,SE,130,0.0,0.0,45,-99.99,,,-99.99,,2013-07-12 18:48:00,
2013-07-12 13:58:00,86.0,62.0,-100.00,SE,130,0.0,0.0,45,-99.99,,,-99.99,,2013-07-12 18:58:00,
2013-07-12 14:15:00,87.0,61.0,-100.00,SE,135,0.0,0.0,42,-99.99,,,-99.99,,2013-07-12 19:15:00,
2013-07-12 14:24:00,87.0,61.0,-100.00,SE,135,0.0,0.0,42,-99.99,,,-99.99,,2013-07-12 19:24:00,
2013-07-12 16:59:00,85.0,62.0,-100.00,East,90,0.0,0.0,46,-99.99,,,-99.99,,2013-07-12 21:59:00,
2013-07-12 17:24:00,82.0,61.0,-100.00,NE,45,0.0,0.0,48,-99.99,,,-99.99,,2013-07-12 22:24:00,
2013-07-12 17:44:00,81.0,59.0,-100.00,SE,130,0.0,0.0,47,-99.99,,,-99.99,,2013-07-12 22:44:00,
2013-07-12 17:56:00,81.0,59.0,-100.00,SE,130,0.0,0.0,47,-99.99,,,-99.99,,2013-07-12 22:56:00,
2013-07-12 18:35:00,81.0,60.0,-100.00,ESE,105,0.0,0.0,50,-99.99,,,-99.99,,2013-07-12 23:35:00,
2013-07-12 18:58:00,80.0,59.0,-100.00,East,100,0.0,0.0,49,-99.99,,,-99.99,,2013-07-12 23:58:00,
2013-07-12 19:17:00,80.0,59.0,-100.00,ESE,115,0.0,0.0,49,-99.99,,,-99.99,,2013-07-13 00:17:00,
2013-07-12 19:33:00,80.0,59.0,-100.00,ESE,115,0.0,0.0,49,-99.99,,,-99.99,,2013-07-13 00:33:00,
2013-07-12 19:56:00,79.0,59.0,-100.00,ESE,115,0.0,0.0,51,-99.99,,,-99.99,,2013-07-13 00:56:00,
2013-07-12 20:13:00,78.0,59.0,-100.00,ESE,110,0.0,0.0,51,-99.99,,,-99.99,,2013-07-13 01:13:00,
2013-07-12 20:24:00,78.0,59.0,-100.00,ESE,110,0.0,0.0,51,-99.99,,,-99.99,,2013-07-13 01:24:00,
2013-07-12 21:14:00,76.0,61.0,-100.00,ESE,120,0.0,0.0,59,-99.99,,,-99.99,,2013-07-13 02:14:00,
2013-07-12 21:24:00,76.0,61.0,-100.00,ESE,120,0.0,0.0,59,-99.99,,,-99.99,,2013-07-13 02:24:00,
2013-07-12 21:36:00,76.0,62.0,-100.00,ESE,110,0.0,0.0,62,-99.99,,,-99.99,,2013-07-13 02:36:00,
2013-07-12 21:55:00,75.0,62.0,-100.00,ESE,110,0.0,0.0,65,-99.99,,,-99.99,,2013-07-13 02:55:00,
2013-07-12 22:13:00,73.0,64.0,-100.00,ESE,105,0.0,0.0,73,-99.99,,,-99.99,,2013-07-13 03:13:00,
2013-07-12 22:45:00,72.0,64.0,-100.00,ESE,120,0.0,0.0,77,-99.99,,,-99.99,,2013-07-13 03:45:00,
2013-07-12 22:57:00,72.0,64.0,-100.00,ESE,120,0.0,0.0,77,-99.99,,,-99.99,,2013-07-13 03:57:00,
2013-07-12 23:22:00,70.0,63.0,-100.00,SE,125,0.0,0.0,77,-99.99,,,-99.99,,2013-07-13 04:22:00,
2013-07-12 23:43:00,69.0,63.0,-100.00,SE,125,0.0,0.0,80,-99.99,,,-99.99,,2013-07-13 04:43:00,
2013-07-12 23:52:00,69.0,63.0,-100.00,SE,125,0.0,0.0,80,-99.99,,,-99.99,,2013-07-13 04:52:00,